Lapse_Rate
5.4 6.5 6.5 6.5 6.5 6.5 6.5 6.5 6.5 6.5 6.5 6.5 6.5 6.5 6.5 6.4 6.5 6.5 6.6 6.7 6.9 7.0 6.4 5.9 5.5 5.4 5.1 4.8 4.4 4.5 4.5 3.9 4.0 2.6 3.4 3.2 3.7 3.2 2.9 3.0 4.0 3.7 3.9 4.5
6.5 6.5 6.5 6.5 6.5 6.5 6.5 6.5 6.5 6.5 6.5 6.5 6.5 6.5 6.5 6.5 6.5 6.5 6.6 6.7 6.9 6.7 6.6 5.8 5.6 5.3 5.1 3.9 4.2 4.4 4.3 3.6 3.7 4.6 4.8 3.3 2.8 2.8 3.0 3.1 3.6 3.9 4.3 4.5
6.5 6.5 6.5 6.5 6.5 6.5 6.5 6.5 6.5 6.5 6.5 6.5 6.5 6.5 6.5 6.5 6.1 6.4 6.6 6.9 6.9 6.7 6.2 4.4 5.3 4.9 5.0 4.2 3.6 3.6 3.7 3.9 3.7 4.1 3.8 2.4 2.4 2.0 2.4 2.8 3.1 3.2 4.1 4.4
6.5 6.5 6.5 6.5 6.5 6.5 6.5 6.5 6.5 6.5 6.5 6.5 6.5 6.5 6.5 6.5 6.5 6.5 6.3 6.5 6.6 6.7 6.4 5.6 4.2 4.1 4.3 4.0 3.5 3.4 3.4 3.6 3.6 3.4 4.3 4.9 3.9 3.6 2.3 2.6 3.0 2.7 3.8 3.8
6.5 6.5 6.5 6.5 6.5 6.5 6.5 6.5 6.5 6.5 6.5 6.5 6.5 6.5 6.5 6.5 6.5 6.5 6.4 6.5 6.7 6.8 6.7 6.1 5.2 4.3 4.2 4.4 3.3 3.1 2.7 3.0 3.3 2.7 4.5 4.2 4.3 4.2 2.3 2.1 3.1 2.9 2.5 3.3
6.5 5.7 6.5 6.5 6.5 6.5 6.5 6.5 6.5 6.5 6.5 6.5 6.5 6.5 6.5 6.5 6.5 6.5 6.4 6.4 6.6 6.8 6.8 6.5 5.6 5.1 4.6 4.5 4.2 3.2 2.6 2.5 2.8 2.6 3.4 3.7 4.1 2.5 2.9 2.0 2.5 2.5 1.8 2.4
6.5 6.5 6.5 6.4 6.5 6.5 6.5 6.5 6.5 6.5 6.5 6.5 6.5 6.5 6.5 6.5 6.5 6.5 6.5 6.2 6.5 6.9 6.9 6.6 6.4 6.2 5.6 4.9 3.9 3.5 2.3 2.2 2.4 2.3 2.9 3.3 3.7 3.2 3.5 3.1 2.7 1.6 1.6 1.6
6.5 6.5 6.5 6.5 6.5 6.5 6.5 6.5 6.5 6.5 6.5 6.5 6.5 6.5 6.5 6.5 5.8 6.0 6.0 6.1 6.4 6.6 6.9 6.6 6.1 5.7 5.3 4.7 3.6 3.3 2.3 2.5 2.2 2.1 2.5 3.0 3.4 3.4 3.9 3.2 3.3 2.6 2.2 2.8
6.5 6.5 6.5 6.5 6.5 6.5 6.5 6.5 6.5 6.5 6.5 6.5 6.5 6.5 6.5 6.5 6.5 6.3 5.7 6.0 6.2 6.5 6.6 6.6 6.2 5.5 5.7 4.6 3.5 2.6 2.3 2.4 2.3 2.0 2.3 2.5 2.7 3.3 3.4 2.2 2.3 2.6 2.5 3.5
6.5 6.5 6.5 6.5 6.4 6.5 6.5 6.5 6.5 6.5 6.5 6.5 6.5 6.5 6.5 6.5 6.5 6.5 6.5 6.1 6.1 6.5 6.3 6.4 6.5 5.6 5.3 5.0 4.0 3.0 2.5 2.1 1.9 2.1 2.2 2.3 2.4 2.9 3.2 2.5 2.0 2.4 2.8 2.8
6.5 6.5 6.5 6.5 6.5 6.5 6.5 6.5 6.5 6.5 6.5 6.5 6.5 6.5 6.5 6.5 6.5 6.5 6.5 5.9 5.9 6.3 6.3 5.7 6.4 6.1 4.9 4.7 4.0 2.6 2.8 2.5 2.8 2.0 2.3 2.5 2.4 2.6 3.4 2.9 2.3 2.5 2.7 2.1
6.5 6.5 6.5 6.5 6.5 6.5 6.5 6.5 6.5 6.5 6.5 6.5 6.5 6.5 6.5 6.5 6.5 6.6 5.6 4.5 3.8 5.9 6.2 6.3 5.8 5.9 5.4 5.9 5.4 3.2 2.3 2.0 2.6 2.2 2.3 1.8 1.9 2.0 2.8 3.0 2.5 2.4 3.0 2.7
6.5 6.5 6.5 6.5 6.5 6.5 6.5 6.5 6.5 6.5 6.5 6.5 6.5 6.5 6.5 6.5 6.5 5.0 4.6 2.5 3.9 4.9 4.8 5.7 5.7 5.9 5.7 5.5 4.7 3.2 2.7 1.6 1.8 2.3 2.3 2.2 1.7 1.6 2.3 3.2 3.3 1.7 3.1 3.0
6.3 6.5 6.5 6.5 6.5 6.5 6.5 6.5 6.5 6.5 6.5 6.5 6.5 6.5 6.5 6.5 6.5 6.6 3.7 1.9 1.8 2.8 3.8 5.1 4.6 5.7 5.5 4.8 3.9 3.3 2.1 2.6 2.0 2.5 1.8 1.9 2.0 1.4 1.7 2.7 3.3 3.2 2.1 2.1
6.5 6.5 6.5 6.5 6.5 6.5 6.5 6.5 6.5 6.5 6.5 6.5 6.5 6.5 6.5 6.5 6.5 6.2 1.6 1.7 3.9 3.5 4.2 4.6 3.4 3.9 2.1 2.7 3.4 4.3 3.4 2.9 2.4 2.5 2.1 1.1 1.5 1.6 1.5 1.9 2.5 3.1 3.1 2.4
6.5 6.5 6.5 6.5 6.5 6.5 6.5 6.5 6.5 6.5 6.5 6.5 6.5 6.5 6.5 6.3 3.3 4.9 2.6 2.0 2.8 3.4 4.9 4.2 3.5 4.4 2.9 2.8 1.3 1.7 2.1 2.0 2.5 2.2 0.7 1.1 1.6 1.5 1.3 1.5 1.7 2.3 2.9 2.9
6.5 6.5 6.5 6.5 6.5 6.5 6.5 6.5 6.5 6.5 6.5 6.5 6.5 6.5 6.5 6.5 6.5 6.2 2.8 1.3 2.2 1.8 2.8 2.5 2.3 2.6 2.8 4.2 2.6 1.9 1.7 0.7 0.9 0.7 0.5 1.1 1.2 1.0 1.0 1.6 1.6 1.5 2.2 2.7
6.5 6.5 6.5 6.5 6.5 6.5 6.5 6.5 6.5 6.5 6.5 6.5 6.5 6.5 6.5 6.5 3.7 1.2 -1.2 -0.9 0.2 -0.9 1.3 2.2 1.6 1.4 0.5 3.2 3.2 1.7 3.2 2.6 0.1 -0.4 0.4 1.3 1.6 1.2 1.6 1.4 1.2 1.6 1.8 2.1
6.5 6.5 6.5 6.5 6.5 6.5 6.5 6.5 6.5 6.5 6.5 6.5 6.5 6.5 6.5 3.7 5.1 5.2 0.1 -1.3 -1.1 -1.8 -1.4 1.6 0.9 0.5 -0.7 -0.3 0.3 -0.3 1.1 2.0 1.1 1.0 0.8 0.7 0.6 0.8 1.9 1.4 0.5 1.1 2.5 2.5
6.5 6.5 6.5 6.5 6.5 6.5 6.5 6.5 6.6 6.5 6.5 6.5 6.5 6.5 6.5 5.9 6.5 6.5 1.2 -0.2 -0.3 -2.1 -1.7 -1.1 -1.7 -1.9 -1.9 -2.4 -1.8 0.1 0.3 1.3 1.5 1.0 -0.1 -0.7 0.2 1.6 1.1 -0.2 0.6 1.1 2.2 3.1
6.5 6.5 6.5 6.5 6.5 6.5 6.5 6.5 6.6 6.5 6.5 6.5 5.3 5.8 6.0 6.5 4.3 0.2 -1.3 0.2 -0.4 -2.7 -2.3 0.2 -2.5 -2.3 -1.4 -1.7 -0.8 -0.5 -0.5 -1.0 -0.7 0.4 0.5 0.7 1.8 1.7 1.3 1.7 2.9 2.2 2.2 3.7
6.5 6.5 6.5 6.5 6.5 6.5 6.5 6.6 6.5 6.5 6.6 6.8 4.6 3.2 3.0 1.0 -1.1 0.1 -0.1 0.2 -1.1 -1.4 -1.5 -1.1 -3.0 -3.3 -3.3 -3.5 -0.8 -1.4 -1.7 -1.6 -1.6 -0.9 0.1 0.1 0.4 2.0 3.1 3.4 3.4 3.4 4.3 4.4
6.5 6.5 6.5 6.5 6.5 6.6 6.3 6.5 6.7 7.1 6.6 6.4 5.0 1.1 0.8 1.2 1.3 -0.3 -0.3 0.4 -0.2 -0.8 -2.4 -3.4 -1.9 -2.0 -3.2 -3.2 -2.8 -0.7 -0.7 -1.0 -1.8 -1.3 -1.4 -1.2 -1.7 0.2 0.1 0.8 1.4 2.4 2.7 4.9
6.5 6.5 6.5 6.5 6.5 6.5 6.4 5.5 5.6 6.4 7.0 6.3 2.9 1.8 1.6 0.8 1.5 -0.1 -0.1 -0.6 -1.0 -1.5 -1.5 -1.5 -1.5 -2.2 -2.5 -2.7 -2.9 -3.0 -3.2 -2.7 -2.8 -3.4 -2.4 -0.8 -0.0 1.5 3.4 3.6 4.3 4.9 5.4 4.9
6.5 6.5 6.5 6.5 6.5 6.4 5.6 4.7 6.5 6.8 6.9 4.7 3.9 3.2 1.4 0.5 0.5 0.7 0.4 -0.3 -0.6 -1.1 -1.5 -1.7 -1.8 -1.9 -1.7 -1.8 -1.7 -1.7 -1.2 -1.3 -1.0 -1.1 -1.2 -1.2 0.1 1.8 -2.3 -3.1 -3.5 1.1 1.4 3.3
6.5 6.5 6.5 6.5 6.3 6.3 6.4 4.7 6.5 6.9 6.7 3.6 2.3 2.8 2.8 2.2 3.0 2.5 2.0 1.6 1.2 0.9 0.8 0.3 0.2 0.2 -0.1 -0.4 -0.9 -1.1 -1.1 0.1 1.0 2.0 2.1 1.7 -0.6 -0.2 0.1 0.4 0.9 -4.3 -3.5 -1.5
Wind_Speed
6 7 12 9 7 5 6 3 4 4 8 1 13 6 21 22 18 19 20 19 20 21 22 21 19 19 17 15 15 16 15 14 11 5 6 3 4 3 3 6 11 14 13 13
2 14 8 8 8 8 6 6 6 5 6 9 10 9 19 23 26 24 23 22 23 18 16 19 19 19 19 18 18 16 17 15 13 10 9 4 4 3 3 5 8 11 14 15
11 6 11 9 6 9 6 10 5 7 0 2 5 3 12 18 5 13 17 20 22 23 20 18 21 21 20 20 20 20 19 18 15 15 7 2 3 2 2 2 3 6 13 13
6 8 10 7 10 10 10 5 6 8 5 5 6 5 14 17 18 16 18 19 19 20 19 17 19 20 21 21 18 19 19 18 15 15 12 13 7 5 4 4 4 5 12 10
10 14 17 13 14 8 9 6 7 6 5 1 5 2 7 18 16 21 21 24 22 22 21 21 21 23 23 21 19 18 18 18 17 16 16 12 9 7 4 4 6 7 6 10
15 5 14 17 9 13 5 3 2 0 3 7 12 8 8 10 26 23 20 24 27 25 24 23 23 20 18 19 18 18 18 17 17 17 18 17 15 9 6 5 5 4 4 5
5 18 4 7 8 6 6 7 4 3 4 11 10 7 15 9 15 21 24 25 26 26 25 24 22 20 20 21 22 19 19 19 19 19 18 17 16 14 13 10 7 6 4 3
9 5 17 7 10 11 10 14 6 8 4 7 5 10 13 16 13 19 18 23 24 25 24 25 25 22 22 23 22 22 21 20 19 18 18 16 16 11 11 10 8 6 6 7
9 9 4 12 7 17 8 12 12 3 2 3 5 8 6 9 11 12 13 13 19 24 24 25 24 23 22 22 24 23 22 22 20 20 17 16 15 15 13 10 8 7 7 6
7 2 8 10 10 10 14 8 4 2 11 14 5 7 6 10 17 12 10 16 19 22 22 23 23 23 21 21 21 21 22 23 22 22 19 17 17 16 13 11 11 10 9 8
1 4 4 7 8 19 3 9 4 7 6 10 2 10 9 9 11 13 15 18 22 22 24 23 22 20 22 21 20 22 20 21 20 20 18 17 15 15 14 13 11 12 11 9
7 2 15 18 5 14 19 14 12 5 10 6 11 10 3 17 14 10 11 13 19 23 21 20 20 20 18 19 17 20 21 20 20 19 18 19 17 16 16 15 13 12 14 11
8 4 2 6 3 3 8 10 16 13 1 21 7 6 8 7 7 9 11 10 8 15 14 19 18 17 18 19 20 20 20 22 21 20 19 17 17 17 18 18 16 13 14 13
3 3 5 11 4 5 8 10 15 16 11 14 20 4 4 7 11 9 9 10 9 14 17 18 14 15 16 18 20 19 20 20 20 19 20 20 19 19 18 18 17 16 14 13
4 4 4 7 11 15 15 15 25 19 24 16 14 14 13 10 10 10 10 6 8 9 14 18 18 17 15 14 17 17 16 18 19 20 20 22 19 18 18 17 17 17 16 14
5 4 5 6 10 13 16 19 24 29 23 14 7 8 9 15 9 8 11 9 11 13 17 18 18 18 18 19 21 22 20 19 19 20 22 20 19 18 19 18 17 16 16 16
2 2 5 5 6 10 12 31 20 12 13 18 14 8 8 8 10 13 13 10 13 15 18 14 13 16 17 18 19 20 21 21 22 22 20 19 19 19 19 17 17 18 18 16
5 4 2 5 5 7 12 10 19 17 9 7 5 11 11 14 13 15 12 11 12 11 12 12 11 13 12 17 18 19 15 17 18 19 18 18 18 19 18 18 19 18 16 17
18 6 3 3 3 9 12 3 6 12 9 7 12 10 9 11 1 6 7 7 12 12 13 14 13 11 10 11 12 12 12 15 16 17 18 19 19 20 19 19 20 17 16 15
22 19 7 3 4 6 2 15 20 13 18 15 12 11 10 7 4 12 7 8 11 10 8 9 10 7 9 9 14 14 14 15 18 18 19 20 20 20 21 21 19 17 15 17
9 9 13 10 5 8 12 21 10 8 7 15 11 15 10 8 9 10 7 8 7 8 10 4 8 11 13 10 13 15 15 19 21 18 17 15 17 20 20 17 15 16 17 15
8 10 7 7 7 8 12 8 7 10 22 18 9 7 11 9 7 5 7 6 8 9 8 8 6 9 9 8 12 12 15 19 16 16 16 16 17 14 12 16 14 14 15 15
5 5 8 8 6 3 3 3 8 13 20 16 11 8 8 8 6 8 7 5 5 6 4 3 3 3 1 4 7 13 19 18 16 15 17 18 18 17 18 18 19 15 18 14
6 9 6 6 5 5 9 12 14 20 20 11 7 5 6 8 5 7 6 5 6 6 7 5 8 8 7 5 3 6 7 4 3 8 9 8 11 12 9 9 12 12 13 13
9 6 13 15 4 4 9 11 17 24 15 10 14 16 13 9 8 7 7 8 8 8 9 9 10 9 10 8 7 6 3 6 6 5 4 4 4 7 10 12 8 3 5 3
8 7 8 9 6 4 4 7 14 17 9 11 16 17 18 17 13 11 12 9 10 10 9 11 10 10 10 11 12 11 9 6 6 7 6 5 6 6 8 10 12 21 20 24
Wind_Direction
193 190 209 193 184 179 156 186 181 282 292 153 199 161 179 181 187 193 190 194 199 209 203 197 196 194 190 190 192 196 193 193 182 175 185 186 207 182 186 199 209 194 188 192
165 219 204 194 194 218 206 206 245 259 248 190 217 203 187 181 196 194 189 197 204 199 203 202 202 195 191 189 193 196 198 192 187 190 195 185 177 195 176 189 200 196 194 201
203 224 184 187 190 201 213 208 174 210 116 51 120 163 189 208 228 204 209 205 207 200 190 192 200 201 198 196 194 197 197 195 191 187 182 109 103 74 116 168 196 206 209 208
214 218 187 179 210 193 235 169 158 215 141 213 171 235 190 195 208 207 210 212 211 211 207 196 196 196 201 203 197 197 195 195 193 183 189 198 189 181 196 185 197 199 201 201
216 186 197 211 209 174 241 171 187 210 208 177 236 183 232 183 206 213 206 210 211 211 208 206 198 201 203 197 194 195 194 195 191 186 192 195 196 197 179 177 194 207 198 194
214 195 198 212 193 205 171 314 58 343 154 235 229 198 233 188 210 215 207 214 210 206 212 210 210 202 202 199 197 194 192 198 193 189 193 194 195 186 195 191 204 201 193 196
178 223 216 153 186 185 140 123 257 264 212 233 214 192 229 209 204 209 208 210 209 205 206 209 208 203 198 197 196 194 193 197 194 192 194 195 196 191 200 201 198 176 174 193
183 213 210 199 189 194 195 188 163 191 207 227 160 230 236 218 234 218 213 211 206 203 204 207 208 205 199 199 196 195 193 198 193 192 195 196 197 196 203 204 200 194 189 205
183 234 228 196 176 175 197 195 195 156 208 9 221 278 314 217 244 234 220 214 210 201 203 206 208 205 204 198 198 197 194 198 195 195 194 194 196 198 202 202 196 194 193 204
204 226 212 203 176 218 195 172 161 339 217 240 252 243 213 191 220 228 214 209 215 209 200 209 209 205 202 202 202 201 199 195 193 195 194 195 195 198 199 200 198 191 201 195
83 162 251 138 190 198 167 206 199 175 169 223 220 255 181 212 214 215 214 211 214 206 203 205 210 205 205 200 194 198 199 198 200 195 195 197 197 198 201 203 200 191 192 187
336 256 237 228 219 193 213 215 195 190 227 240 230 233 252 200 214 208 240 221 219 210 209 207 207 204 201 203 195 194 195 195 200 197 196 195 195 194 200 206 203 193 195 192
340 299 224 323 335 246 209 201 207 211 146 230 203 246 237 200 207 212 213 237 232 220 204 205 205 202 199 196 195 197 196 200 196 194 194 198 197 195 202 207 204 195 201 196
5 284 247 247 274 183 208 214 212 199 222 220 233 208 210 211 217 219 230 228 201 189 189 200 203 200 198 197 198 196 201 199 194 194 195 196 199 199 202 205 207 202 197 196
64 283 283 286 295 287 263 226 217 212 219 204 226 206 229 202 204 221 221 216 184 206 201 202 202 193 188 187 194 202 202 197 193 195 199 203 196 200 203 205 204 208 206 201
2 279 329 284 264 255 261 258 234 218 219 229 197 228 212 219 219 219 224 205 202 203 203 213 211 199 197 193 193 194 192 193 192 196 204 200 198 198 203 202 202 203 207 207
293 270 339 269 305 319 256 232 243 246 207 204 208 202 197 240 203 220 231 217 204 205 216 199 208 208 206 204 198 200 197 186 188 199 199 199 199 201 202 201 200 204 205 201
210 171 257 268 313 220 277 196 222 231 230 202 151 189 200 211 223 221 212 203 216 202 209 220 204 209 212 212 200 204 189 191 195 197 196 195 197 205 202 199 204 206 203 205
204 184 244 236 243 290 306 358 234 186 229 208 190 201 208 221 29 260 227 214 205 202 204 213 210 215 207 189 188 166 172 183 189 197 199 197 197 200 199 202 203 201 201 204
193 205 202 185 231 247 100 329 322 313 223 202 185 199 198 129 198 247 201 210 226 220 206 187 201 189 175 182 156 162 175 181 196 199 202 199 199 200 201 203 201 200 201 206
173 195 217 245 253 280 350 332 317 165 239 307 188 202 179 176 201 223 175 206 203 196 209 211 168 183 198 173 167 182 184 193 203 202 202 200 203 203 204 202 201 197 200 202
194 164 183 231 220 254 8 10 5 307 300 294 263 189 178 197 181 192 152 164 161 167 176 190 197 194 182 167 175 187 195 211 201 195 195 196 198 201 201 196 195 197 199 199
235 185 177 203 229 150 166 249 305 316 295 287 285 136 134 144 174 150 144 146 115 107 96 93 219 270 347 179 189 191 213 206 195 188 196 200 198 199 191 193 194 190 189 195
282 196 182 256 222 233 41 4 350 332 311 299 328 21 114 112 84 96 100 74 59 46 46 41 66 60 46 19 306 275 339 16 154 184 203 211 201 198 206 207 203 202 189 184
263 270 216 224 272 268 51 15 341 319 311 26 39 38 39 67 56 67 59 49 42 39 35 45 53 51 43 46 49 19 303 170 179 183 186 165 152 138 91 76 43 26 24 171
230 238 211 218 185 127 80 11 326 310 313 47 55 42 39 41 40 45 49 40 40 40 35 41 37 44 36 37 35 26 31 56 79 72 63 72 96 100 104 111 86 75 80 70